Virginia Beach, VA

7:39 AM EST on February 12, 2016 (GMT -0500)
Oceana Naval Air Station

Weather History for KNTU - April, 2013

Change the Weather History Date:

Wednesday, April 10, 2013

  Actual Average Record
Temperature  
Mean Temperature 76 °F -  
Max Temperature 88 °F 64 °F 88 °F (2013)
Min Temperature 64 °F 45 °F 30 °F (2007)
Cooling Degree Days 11    
Growing Degree Days 26 (Base 50)    
Moisture  
Dew Point 58 °F    
Average Humidity 54    
Maximum Humidity 73    
Minimum Humidity 36    
Precipitation  
Precipitation 0.00 in - - ()
Sea Level Pressure  
Sea Level Pressure 29.98 in    
Wind  
Wind Speed 13 mph (SW)    
Max Wind Speed 18 mph    
Max Gust Speed 25 mph    
Visibility 10 miles    
Events      
Averages and records for this station are not official NWS values.
T = Trace of Precipitation, MM = Missing Value Source: NWS Daily Summary

Daily Weather History Graph

Daily Weather History Graph

Search for Another Location

Airport or City:

Trip Planner

Search our weather history database for the weather conditions in past years. The results will help you decide how hot, cold, wet, or windy it might be!

Date:

Astronomy

Apr. 10, 2013 Rise Set
Actual Time 6:36 AM EDT 7:34 PM EDT
Civil Twilight 6:10 AM EDT 8:01 PM EDT
Nautical Twilight 5:38 AM EDT 8:32 PM EDT
Astronomical Twilight 5:06 AM EDT 9:05 PM EDT
Moon 6:32 AM EDT (4/10) 8:06 PM EDT (4/10)
Length of Visible Light 13h 50m
Length of Day
12h 57m
New Moon, 0% of the Moon is Illuminated
Apr 10
New Moon
Apr 18
First Quarter
Apr 25
Full
May 2
Last Quarter
May 9
New

Hourly Weather History & Observations

Time (EDT) Temp. Heat Index Dew Point Humidity Pressure Visibility Wind Dir Wind Speed Gust Speed Precip Events Conditions
12:56 AM 70.0 °F - 57.9 °F 65% 30.05 in 10.0 mi SSW 12.7 mph - N/A   Clear
1:56 AM 69.1 °F - 57.0 °F 65% 30.03 in 10.0 mi SSW 11.5 mph - N/A   Clear
2:56 AM 68.0 °F - 55.9 °F 65% 30.01 in 10.0 mi SW 15.0 mph - N/A   Scattered Clouds
3:56 AM 66.9 °F - 55.0 °F 66% 30.01 in 10.0 mi SW 13.8 mph - N/A   Mostly Cloudy
4:56 AM 66.0 °F - 55.0 °F 68% 30.02 in 10.0 mi SW 11.5 mph - N/A   Mostly Cloudy
5:56 AM 66.0 °F - 55.0 °F 68% 30.03 in 10.0 mi SW 10.4 mph - N/A   Mostly Cloudy
6:56 AM 64.9 °F - 55.9 °F 73% 30.05 in 10.0 mi SW 11.5 mph - N/A   Scattered Clouds
7:56 AM 66.0 °F - 55.9 °F 70% 30.05 in 10.0 mi SW 12.7 mph 23.0 mph N/A   Scattered Clouds
8:56 AM 70.0 °F - 57.9 °F 65% 30.05 in 10.0 mi SW 16.1 mph - N/A   Scattered Clouds
9:56 AM 75.0 °F - 59.0 °F 57% 30.05 in 10.0 mi WSW 17.3 mph 21.9 mph N/A   Scattered Clouds
10:56 AM 79.0 °F - 60.1 °F 52% 30.04 in 10.0 mi WSW 15.0 mph - N/A   Partly Cloudy
11:56 AM 82.0 °F 82.4 °F 60.1 °F 47% 30.02 in 10.0 mi WSW 10.4 mph - N/A   Partly Cloudy
12:56 PM 84.0 °F 84.0 °F 60.1 °F 44% 30.00 in 10.0 mi SW 8.1 mph - N/A   Partly Cloudy
1:56 PM 86.0 °F 85.4 °F 59.0 °F 40% 29.99 in 10.0 mi SW 11.5 mph - N/A   Partly Cloudy
2:56 PM 88.0 °F 87.1 °F 59.0 °F 37% 29.97 in 10.0 mi West 8.1 mph - N/A   Partly Cloudy
3:56 PM 88.0 °F 87.1 °F 59.0 °F 37% 29.93 in 10.0 mi SW 11.5 mph - N/A   Partly Cloudy
4:56 PM 88.0 °F 86.9 °F 57.9 °F 36% 29.91 in 10.0 mi SSW 13.8 mph 18.4 mph N/A   Partly Cloudy
5:56 PM 87.1 °F 86.1 °F 57.9 °F 37% 29.91 in 10.0 mi SSW 18.4 mph 25.3 mph N/A   Partly Cloudy
6:56 PM 84.9 °F 83.9 °F 57.0 °F 38% 29.91 in 10.0 mi SW 13.8 mph 24.2 mph N/A   Partly Cloudy
7:56 PM 82.9 °F 82.4 °F 57.0 °F 41% 29.90 in 10.0 mi SSW 11.5 mph - N/A   Partly Cloudy
8:56 PM 80.1 °F 80.4 °F 57.0 °F 45% 29.91 in 10.0 mi SW 12.7 mph - N/A   Clear
9:56 PM 75.9 °F - 61.0 °F 60% 29.92 in 10.0 mi SSW 13.8 mph 23.0 mph N/A   Clear
10:56 PM 73.0 °F - 59.0 °F 61% 29.93 in 10.0 mi SSW 15.0 mph 21.9 mph N/A   Clear
11:56 PM 72.0 °F - 57.0 °F 59% 29.93 in 10.0 mi SW 15.0 mph - N/A   Clear